{"data":{"norad_id":65628,"intl_designator":"2025-210G","name":"STARLINK-35128","alt_names":[],"object_type":"PAYLOAD","status":"ACTIVE","operator":null,"country":"US","launch_date":"2025-09-18","launch_site_code":"AFETR","launch_vehicle":null,"mission":null,"orbit_class":"UNKNOWN","rcs_meters":null,"size_class":null,"mass_kg":null,"dimensions":null,"purposes":["comms"],"wikipedia_slug":null,"has_3d_model":false,"image_url":null,"decayed_at":null,"tle_current":{"epoch":"2026-05-24T20:21:15.678432Z","epoch_age_seconds":84076,"freshness":"FRESH","line1":"1 65628U 25210G   26144.84809813  .00026806  00000+0  80141-3 0  9993","line2":"2 65628  53.1601 312.4612 0000481 165.9954 194.1062 15.34409743 39405","mean_motion":15.34409743,"eccentricity":4.81e-5,"inclination_deg":53.1601,"raan_deg":312.4612,"arg_perigee_deg":165.9954,"mean_anomaly_deg":194.1062,"bstar":0.00080141,"rev_number":3940,"period_min":93.847162178766,"perigee_km":462.34523908842,"apogee_km":463.00332513376,"semimajor_km":6840.8112821111,"source":"CELESTRAK","updated_at":"2026-05-25T13:38:20.880767Z"}}}